Location: ??????????
(54.8537°N, 38.8755°E)
Time: 00:01:24
(UTC+00:00)

Explorer 7 - All Passes

Search period start: 12 September 2024 00:00
Search period end: 22 September 2024 00:00
Orbit: 462 x 610 km, 50.3° (Epoch: 11 September)

Date Brightness Start Highest point End Pass type
(mag) Time Alt. Az. Time Alt. Az. Time Alt. Az.
12 Sep - 00:52:57 10° S 00:54:58 14° SSE 00:56:59 10° ESE visible
12 Sep - 02:30:25 10° SW 02:33:43 33° SSE 02:37:01 10° E daylight
12 Sep - 04:09:20 10° WSW 04:12:45 39° S 04:16:10 10° ESE daylight
12 Sep - 05:48:48 10° WSW 05:51:39 22° SSW 05:54:32 10° SSE daylight
13 Sep - 00:42:26 10° S 00:44:49 16° SSE 00:47:11 10° ESE visible
13 Sep - 02:20:15 10° SW 02:23:37 35° SSE 02:26:57 10° ESE daylight
13 Sep - 03:59:16 10° WSW 04:02:39 37° S 04:06:03 10° ESE daylight
13 Sep - 05:38:52 10° WSW 05:41:30 19° SSW 05:44:10 10° SSE daylight
14 Sep - 00:31:58 10° SSW 00:34:38 19° SSE 00:37:15 10° ESE visible
14 Sep - 02:10:04 10° WSW 02:13:29 37° S 02:16:51 10° ESE visible
14 Sep - 03:49:09 10° WSW 03:52:31 36° S 03:55:52 10° SE daylight
14 Sep - 05:28:55 10° WSW 05:31:18 17° SSW 05:33:43 10° S daylight
15 Sep - 00:21:32 10° SSW 00:24:24 21° SSE 00:27:14 10° ESE visible
15 Sep - 01:59:51 10° WSW 02:03:18 39° S 02:06:42 10° ESE visible
15 Sep - 03:39:01 10° W 03:42:19 33° SSW 03:45:38 10° SE daylight
15 Sep - 05:19:00 10° WSW 05:21:04 15° SSW 05:23:08 10° S daylight
16 Sep - 00:11:07 10° SSW 00:14:08 24° SSE 00:17:08 10° ESE visible
16 Sep - 01:49:37 10° WSW 01:53:05 40° S 01:56:30 10° ESE visible
16 Sep - 03:28:50 10° W 03:32:05 31° SSW 03:35:20 10° SE daylight
16 Sep - 05:09:09 10° WSW 05:10:46 12° SW 05:12:21 10° S daylight
17 Sep - 00:00:41 10° SW 00:03:52 26° SSE 00:06:57 10° E visible
17 Sep - 01:39:20 10° WSW 01:42:49 40° S 01:46:15 10° ESE visible
17 Sep - 03:18:37 10° W 03:21:48 29° SSW 03:24:58 10° SE daylight
17 Sep - 04:59:36 10° SW 05:00:24 11° SW 05:01:11 10° SSW daylight
17 Sep - 22:13:45 10° SSE 22:14:53 11° SE 22:16:02 10° SE night (unlit)
17 Sep - 23:50:14 10° SW 23:53:32 29° SSE 23:56:44 10° E visible
18 Sep - 01:29:02 10° WSW 01:32:31 41° S 01:35:57 10° ESE visible
18 Sep - 03:08:23 10° W 03:11:28 26° SSW 03:14:32 10° SE daylight
18 Sep - 22:02:36 10° S 22:04:28 13° SE 22:06:16 10° ESE night (unlit)
18 Sep - 23:39:47 10° SW 23:43:09 32° SSE 23:46:27 10° E visible
19 Sep - 01:18:41 10° WSW 01:22:10 40° S 01:25:36 10° ESE visible
19 Sep - 02:58:06 10° WSW 03:01:05 24° SSW 03:04:02 10° SSE daylight
19 Sep - 21:51:42 10° S 21:54:00 15° SSE 21:56:15 10° ESE night (unlit)
19 Sep - 23:29:18 10° SW 23:32:45 34° SSE 23:36:07 10° E visible
20 Sep - 01:08:17 10° WSW 01:11:47 39° S 01:15:11 10° ESE visible
20 Sep - 02:47:49 10° WSW 02:50:39 21° SSW 02:53:27 10° SSE daylight
20 Sep - 21:40:52 10° SSW 21:43:30 18° SSE 21:46:04 10° ESE night (unlit)
20 Sep - 23:18:48 10° WSW 23:22:19 36° S 23:25:44 10° ESE visible
21 Sep - 00:57:52 10° WSW 01:01:20 38° S 01:04:44 10° ESE visible
21 Sep - 02:37:31 10° WSW 02:40:09 19° SSW 02:42:46 10° SSE daylight
21 Sep - 21:30:05 10° SSW 21:32:58 20° SSE 21:35:47 10° ESE night (unlit)
21 Sep - 23:08:16 10° WSW 23:11:50 38° S 23:15:17 10° ESE visible
